Погода в Магеланге

Индонезия     7°28′21″S   110°13′10″E
темп.,
°C
ветер,
м/с
пор.,
м/с
влажн.,
%
обл.,
%
осадки,
мм/ч
давл.,
гПа
погр.,
м
18 июня, пт
пт1801:00+20св019372 0.0 101311
04:00+19св119519 0.0 101312
07:00+21св11915 0.0 101459
10:00+27ююз116467 0.1 1014956
13:00+25ю217761 2.4 1012775
16:00+24ю118960 5.2 1011201
19:00+21юв119881 9.8 101312
22:00+20ссв119873 6.1 101421
19 июня, сб
сб1901:00+20ссв229468 7.2 101325
04:00+20ссв11947 0.0 101214
07:00+21св119254 0.0 101467
10:00+26ю017589 1.1 1014790
13:00+25ю118145 5.3 1011664
16:00+23ю1190100 7.1 101186
19:00+20св2195100 18.3 101326
22:00+21ссв1193100 4.0 101418
20 июня, вс
вс2001:00+20ссв119499 4.3 101220
04:00+20сз0196100 1.1 101213
07:00+21с019565 3.3 101366
10:00+25ююз118183 1.9 1013614
13:00+25ю118488 6.4 1011554
16:00+23всв128994 5.3 1011224
19:00+21с1196100 8.0 101322
22:00+20ссв1195100 0.2 101421
21 июня, пн
пн2101:00+19ссз1195100 0.6 101312
04:00+19с019833 0.3 101213
07:00+20з029642 0.4 1014121
10:00+24ююз228143 0.4 1013723
13:00+24ююз228360 2.8 1011756
16:00+21ю2394100 2.7 1011125
19:00+20ююв0197100 2.9 101321
22:00+20зюз0198100 0.0 101448
22 июня, вт
вт2201:00+19зсз019964 0.0 101332
04:00+19ссв019882 0.0 101342
07:00+20юз029697 0.0 1014106
10:00+24ююз237231 0.0 1014854
13:00+26ююз336598 0.4 10111312
16:00+23ю238694 1.6 1011493
19:00+20ююв1298100 2.1 101467
22:00+19юв0198100 0.0 101427